Showing default

FLOCK 4H 27, 66730

Orbit data source: Space-Track

FLOCK 4H 27, 66730 is a payload satellite owned by Planet (US) in SSO that was launched on Fri, 28 Nov 2025 UTC via an FALCON 9 launch vehicle from the Air Force Western Test Range (AFWTR). Payload-class satellites include a variety of spacecraft equipped with specific instruments for various scientific and technological missions. These include communications satellites like Starlink; space stations such as the ISS; scientific satellites like the Hubble; Earth observation satellites from companies like Planet Labs, Umbra, and HawkEye 360; GPS; miniature CubeSats for education and research; and military/defense satellites.

Loading next visibility...
Identifier
66730, 2025-276BS
Orbit
SSO
Country
Flag of USUS
Related business
Manufacturer
Planet
Mission
Operational Commercial Imaging
Bus & Motor
CUBESAT 3U, Unknown motor
Mass
5.7 kg wet, 5.7 kg dry
Launch date (UTC)
2025-11-28 (2 months ago)
Launch vehicle
FALCON 9
Launch site
Air Force Western Test Range (AFWTR)
Object type
Payload
Rocket body
Debris
Shape & HBR
Box + 2 Pan, 1.0 m
Radar Cross Section
0.072 m²

Expand to show TLE details & history
Last TLE update: 18 hours ago

TLE from 18 hours ago
0 FLOCK 4H 27
1 66730U 25276BS  26034.45559371  .00007685  00000-0  37312-3 0  9993
2 66730  97.4308 110.3316 0002077  85.9555 274.1916 15.18739947 10121
Epoch: 2026-02-03T10:56Z
TLE epoch observation values (Epoch: 2026-02-03T10:56:03.296Z)
Latitude
-0.0001°
Longitude
172.6816°
Altitude
512.631 km
Speed
7.608 km/s
True Right ascension
07h 21m 19s
True Declination
0° 00' 00"
Sunlit
Object was in full shadow at epoch
Visualization orbit readout
Latitude
Unknown
Longitude
Unknown
Altitude
Unknown
Speed
Unknown
Apparent Right ascension
Unknown
Apparent Declination
Unknown
Sunlit
N/A
Visualization observer readout
Local Sidereal Time
07:05:33
Azimuth
Unknown
Elevation
Unknown
Doppler factor
Unknown
Orbital elements
Apogee altitude
508.046 km
Perigee altitude
505.186 km
Semi-major axis
6,884.753 km
Eccentricity
0.00021
Inclination
97.4308°
RAAN
110.3316°
Arg. of periapsis
85.9555°
True anomaly
274.16786°
Mean anomaly
274.1916°
Eccentric anomaly
274.17973°
Mean motion
3.79936 °/min
Orbital period
94.75 mins
BSTAR
0.00037312
Loading maneuver chart data...
Computing Atmospheric mass density...
Loading historical data...
Loading historical data...
Loading historical data...
Loading historical data...
Loading historical data...
Loading historical data...
Loading historical data...

Documentation

Showing up to 5 results
|